User: anonymous   Login
Location: Cape Cod Imaging Station
(41.7417°N, 70.1583°W)
Time: 13:35:27
(UTC-04:00)
Language:

Cosmos 1508 Rocket - Orbit

View from above orbital plane
View from above orbital plane
View from above satellite
View from above satellite

Ground track
Ground track

The orbit data is extracted from the following two-line orbital elements,

1 14484U 83111B   15188.21867793  .00434793  82622-4  62970-3 0  9992
2 14484 082.8130 303.4955 0050198 281.5591 156.3852 16.02675053632363
Epoch (UTC): 07 July 2015 05:14:53
Eccentricity: 0.0050198
inclination: 82.8130°
perigee height: 233 km
apogee height: 300 km
right ascension of ascending node: 303.4955°
argument of perigee: 281.5591°
revolutions per day: 16.02675053
mean anomaly at epoch: 156.3852°
orbit number at epoch: 63236

The dashed part of the orbit path shows where the satellite is in the earth's shadow,  

DLR